Location: Bernay
(48.6766°N, 2.9386°E)
Time: 09:29:41
(UTC+00:00)

BREEZE-M DEB (TANK) - Pass Details

Date: 12 January 2026
Orbit: 761 x 22166 km, 51.3° (Epoch: 14 February)

Event Time Altitude Azimuth Distance (km) Brightness Sun altitude
Rises 17:02:09 0° 248° (WSW) 5,598 10.1 -7.5°
Reaches altitude 10° 17:06:36 10° 249° (WSW) 3,507 8.1 -8.2°
Maximum altitude 17:13:07 90° 133° (SE) 823 3.2 -9.2°
Enters shadow 17:17:00 13° 71° (ENE) 2,151 4.6 -9.8°
